• In Russia
  • List of Countries
  • For 7 days
  • Water Temperature
  • Satellite Maps
  • Weather Map
  • Weather Widgets
  • user-avatar
    Login

    Hourly Weather Egilsstaðir

    Today, 19 September, Wednesday

    Time Temperature Precipitation Wind Pressure Humidity
    00:00 +5°C° 0.2 mm 2 mps 658 mmHg 96%
    01:00 +5°C° 0.2 mm 2 mps 658 mmHg 96%
    02:00 +5°C° 0.3 mm 2 mps 657 mmHg 97%
    03:00 +5°C° 0.3 mm 2 mps 657 mmHg 97%
    04:00 +5°C° 0.3 mm 2 mps 657 mmHg 97%
    05:00 +6°C° 0.3 mm 2 mps 657 mmHg 97%
    06:00 +6°C° 0.3 mm 2 mps 657 mmHg 97%
    07:00 +6°C° 0.3 mm 2 mps 657 mmHg 97%
    08:00 +6°C° 0.6 mm 2 mps 657 mmHg 96%
    09:00 +6°C° 0.6 mm 2 mps 658 mmHg 96%
    10:00 +5°C° 0.6 mm 3 mps 658 mmHg 96%
    11:00 +6°C° 0.1 mm 4 mps 658 mmHg 90%
    12:00 +7°C° 0.1 mm 6 mps 659 mmHg 84%
    13:00 +8°C° 0.1 mm 7 mps 660 mmHg 79%
    14:00 +7°C° 0.6 mm 5 mps 660 mmHg 83%
    15:00 +6°C° 0.6 mm 4 mps 660 mmHg 86%
    16:00 +6°C° 0.6 mm 2 mps 660 mmHg 90%
    17:00 +5°C° 0 mm 2 mps 660 mmHg 91%
    18:00 +4°C° 0 mm 2 mps 659 mmHg 93%
    19:00 +3°C° 0 mm 2 mps 659 mmHg 94%
    20:00 +3°C° 0 mm 2 mps 658 mmHg 94%
    21:00 +3°C° 0 mm 2 mps 658 mmHg 94%
    22:00 +2°C° 0 mm 3 mps 657 mmHg 94%
    23:00 +3°C° 0.5 mm 3 mps 656 mmHg 94%

    Tomorrow, 20 September, Thursday

    Time Temperature Precipitation Wind Pressure Humidity
    00:00 +3°C° 0.5 mm 4 mps 655 mmHg 95%
    01:00 +2°C° 0.5 mm 5 mps 654 mmHg 95%
    02:00 +3°C° 1 mm 6 mps 654 mmHg 93%
    03:00 +4°C° 1 mm 6 mps 654 mmHg 90%
    04:00 +4°C° 1 mm 7 mps 653 mmHg 88%
    05:00 +3°C° 0.3 mm 7 mps 653 mmHg 84%
    06:00 +2°C° 0.3 mm 6 mps 653 mmHg 80%
    07:00 +2°C° 0.3 mm 6 mps 653 mmHg 76%
    08:00 +2°C° 0.1 mm 7 mps 653 mmHg 71%
    09:00 +2°C° 0.1 mm 9 mps 654 mmHg 67%
    10:00 +2°C° 0.1 mm 10 mps 654 mmHg 62%
    11:00 +2°C° 0.2 mm 10 mps 654 mmHg 62%
    12:00 +3°C° 0.2 mm 10 mps 654 mmHg 61%
    13:00 +3°C° 0.2 mm 9 mps 655 mmHg 60%
    14:00 +3°C° 0.1 mm 9 mps 654 mmHg 58%
    15:00 +4°C° 0.1 mm 8 mps 654 mmHg 56%
    16:00 +4°C° 0.1 mm 7 mps 654 mmHg 55%
    17:00 +4°C° 0.1 mm 8 mps 654 mmHg 56%
    18:00 +2°C° 0.1 mm 8 mps 653 mmHg 58%
    19:00 +1°C° 0.1 mm 8 mps 653 mmHg 59%
    20:00 +1°C° 0.1 mm 8 mps 652 mmHg 61%
    21:00 +1°C° 0.1 mm 8 mps 652 mmHg 63%
    22:00 0°C° 0.1 mm 8 mps 652 mmHg 65%
    23:00 0°C° 0.4 mm 9 mps 652 mmHg 70%

    Day after tomorrow, 21 September, Friday

    Time Temperature Precipitation Wind Pressure Humidity
    00:00 0°C° 0.4 mm 9 mps 652 mmHg 76%
    01:00 0°C° 0.4 mm 10 mps 653 mmHg 81%
    02:00 0°C° 0.2 mm 9 mps 653 mmHg 83%
    03:00 0°C° 0.2 mm 9 mps 654 mmHg 86%
    04:00 0°C° 0.2 mm 8 mps 654 mmHg 88%
    05:00 0°C° 0.4 mm 8 mps 654 mmHg 88%
    06:00 0°C° 0.4 mm 8 mps 655 mmHg 87%
    07:00 0°C° 0.4 mm 8 mps 655 mmHg 87%
    08:00 +1°C° 0.2 mm 8 mps 655 mmHg 81%
    09:00 +1°C° 0.2 mm 8 mps 655 mmHg 76%
    10:00 +2°C° 0.2 mm 8 mps 655 mmHg 70%
    11:00 +3°C° 0 mm 7 mps 655 mmHg 67%
    12:00 +4°C° 0 mm 6 mps 655 mmHg 64%
    13:00 +5°C° 0 mm 6 mps 655 mmHg 60%
    14:00 +5°C° 0 mm 5 mps 655 mmHg 63%
    15:00 +5°C° 0 mm 4 mps 654 mmHg 66%
    16:00 +5°C° 0 mm 4 mps 654 mmHg 68%
    17:00 +4°C° 0.3 mm 3 mps 653 mmHg 75%
    18:00 +3°C° 0.3 mm 3 mps 652 mmHg 81%
    19:00 +2°C° 0.3 mm 3 mps 651 mmHg 88%
    20:00 +2°C° 1.2 mm 3 mps 650 mmHg 90%
    21:00 +2°C° 1.2 mm 3 mps 649 mmHg 92%
    22:00 +3°C° 1.2 mm 2 mps 648 mmHg 95%
    23:00 +2°C° 2.7 mm 3 mps 647 mmHg 95%

    22 September, Saturday

    Time Temperature Precipitation Wind Pressure Humidity
    00:00 +3°C° 2.7 mm 3 mps 647 mmHg 95%
    01:00 +4°C° 2.7 mm 3 mps 646 mmHg 96%
    02:00 +3°C° 0.4 mm 4 mps 646 mmHg 93%
    03:00 +1°C° 0.4 mm 4 mps 645 mmHg 91%
    04:00 +1°C° 0.4 mm 5 mps 644 mmHg 89%
    05:00 +1°C° 0.6 mm 4 mps 644 mmHg 90%
    06:00 0°C° 0.6 mm 4 mps 643 mmHg 91%
    07:00 0°C° 0.6 mm 4 mps 643 mmHg 92%
    08:00 +1°C° 1.2 mm 3 mps 643 mmHg 92%
    09:00 +1°C° 1.2 mm 3 mps 643 mmHg 92%
    10:00 +2°C° 1.2 mm 2 mps 643 mmHg 92%
    11:00 +2°C° 0.8 mm 3 mps 643 mmHg 91%
    12:00 +1°C° 0.8 mm 4 mps 644 mmHg 89%
    13:00 +1°C° 0.8 mm 4 mps 644 mmHg 88%
    14:00 +1°C° 0.6 mm 6 mps 646 mmHg 88%
    15:00 0°C° 0.6 mm 8 mps 647 mmHg 89%
    16:00 0°C° 0.6 mm 10 mps 648 mmHg 90%
    17:00 -2°C° 0.7 mm 10 mps 649 mmHg 90%
    18:00 -1°C° 0.7 mm 9 mps 649 mmHg 90%
    19:00 -3°C° 0.7 mm 9 mps 650 mmHg 90%
    20:00 -3°C° 0.5 mm 9 mps 651 mmHg 90%
    21:00 -3°C° 0.5 mm 9 mps 652 mmHg 89%
    22:00 -3°C° 0.5 mm 9 mps 653 mmHg 89%
    23:00 -4°C° 0.4 mm 9 mps 653 mmHg 89%

    23 September, Sunday

    Time Temperature Precipitation Wind Pressure Humidity
    00:00 -4°C° 0.4 mm 9 mps 654 mmHg 89%
    01:00 -4°C° 0.4 mm 9 mps 655 mmHg 89%
    02:00 -4°C° 0.3 mm 9 mps 655 mmHg 89%
    03:00 -4°C° 0.3 mm 8 mps 656 mmHg 89%
    04:00 -4°C° 0.3 mm 8 mps 656 mmHg 90%
    05:00 -4°C° 0.3 mm 8 mps 657 mmHg 90%
    06:00 -4°C° 0.3 mm 8 mps 657 mmHg 89%
    07:00 -3°C° 0.3 mm 7 mps 657 mmHg 89%
    08:00 -4°C° 0.2 mm 8 mps 658 mmHg 88%
    09:00 -4°C° 0.2 mm 8 mps 658 mmHg 86%
    10:00 -2°C° 0.2 mm 8 mps 659 mmHg 85%
    11:00 -2°C° 0.1 mm 8 mps 659 mmHg 83%
    12:00 -2°C° 0.1 mm 8 mps 660 mmHg 82%
    13:00 -2°C° 0.1 mm 8 mps 660 mmHg 80%
    14:00 -2°C° 0.1 mm 7 mps 660 mmHg 81%
    15:00 -2°C° 0.1 mm 7 mps 661 mmHg 82%
    16:00 -2°C° 0.1 mm 7 mps 661 mmHg 83%
    17:00 -3°C° 0.3 mm 6 mps 661 mmHg 86%
    18:00 -2°C° 0.3 mm 5 mps 661 mmHg 89%
    19:00 -4°C° 0.3 mm 5 mps 662 mmHg 91%
    20:00 -3°C° 0.7 mm 4 mps 662 mmHg 92%
    21:00 -3°C° 0.7 mm 4 mps 662 mmHg 93%
    22:00 -2°C° 0.7 mm 3 mps 662 mmHg 94%
    23:00 -2°C° 0.2 mm 3 mps 663 mmHg 94%

    24 September, Monday

    Time Temperature Precipitation Wind Pressure Humidity
    00:00 -2°C° 0.2 mm 3 mps 663 mmHg 94%
    01:00 -2°C° 0.2 mm 2 mps 664 mmHg 94%
    02:00 -2°C° 0.1 mm 2 mps 664 mmHg 94%
    03:00 -3°C° 0.1 mm 2 mps 664 mmHg 94%
    04:00 -3°C° 0.1 mm 2 mps 665 mmHg 94%
    05:00 -3°C° 0.1 mm 2 mps 666 mmHg 94%
    06:00 -3°C° 0.1 mm 2 mps 666 mmHg 93%
    07:00 -3°C° 0.1 mm 2 mps 667 mmHg 93%
    08:00 -2°C° 0 mm 3 mps 668 mmHg 88%
    09:00 -3°C° 0 mm 4 mps 669 mmHg 83%
    10:00 -3°C° 0 mm 4 mps 670 mmHg 78%
    11:00 -2°C° 0 mm 4 mps 670 mmHg 75%
    12:00 -2°C° 0 mm 4 mps 671 mmHg 73%
    13:00 -2°C° 0 mm 4 mps 671 mmHg 70%
    14:00 -1°C° 0 mm 3 mps 671 mmHg 72%
    15:00 -1°C° 0 mm 3 mps 671 mmHg 73%
    16:00 -2°C° 0 mm 3 mps 672 mmHg 75%
    17:00 -2°C° 0.2 mm 3 mps 672 mmHg 80%
    18:00 -4°C° 0.2 mm 3 mps 672 mmHg 84%
    19:00 -3°C° 0.2 mm 2 mps 672 mmHg 89%
    20:00 -4°C° 0.2 mm 3 mps 672 mmHg 90%
    21:00 -4°C° 0.2 mm 3 mps 672 mmHg 91%
    22:00 -4°C° 0.2 mm 3 mps 673 mmHg 93%
    23:00 -4°C° 0.1 mm 3 mps 672 mmHg 93%
    Show more